TimePDT,TemperatureF,Dew PointF,Humidity,Sea Level PressureIn,VisibilityMPH,Wind Direction,Wind SpeedMPH,Gust SpeedMPH,PrecipitationIn,Events,Conditions,WindDirDegrees,DateUTC
12:15 AM,55.4,51.8,88,29.87,10.0,Calm,Calm,-,N/A,,Unknown,0,2013-09-28 07:15:00
12:35 AM,55.4,51.8,88,29.87,10.0,Calm,Calm,-,N/A,,Unknown,0,2013-09-28 07:35:00
12:55 AM,55.4,53.6,94,29.86,8.0,Calm,Calm,-,N/A,,Unknown,0,2013-09-28 07:55:00
1:15 AM,55.4,53.6,94,29.85,9.0,Calm,Calm,-,N/A,Rain,Light Rain,0,2013-09-28 08:15:00
1:35 AM,55.4,53.6,94,29.84,9.0,Calm,Calm,-,N/A,Rain,Light Rain,0,2013-09-28 08:35:00
1:55 AM,53.6,53.6,100,29.84,8.0,Calm,Calm,-,0.01,Rain,Light Rain,0,2013-09-28 08:55:00
2:15 AM,53.6,53.6,100,29.83,4.0,Calm,Calm,-,0.03,Rain,Rain,0,2013-09-28 09:15:00
2:35 AM,53.6,53.6,100,29.83,5.0,Calm,Calm,-,0.06,Rain,Light Rain,0,2013-09-28 09:35:00
2:55 AM,53.6,53.6,100,29.81,6.0,Calm,Calm,-,0.07,Rain,Light Rain,0,2013-09-28 09:55:00
3:15 AM,53.6,53.6,100,29.80,5.0,Calm,Calm,-,0.02,Rain,Light Rain,0,2013-09-28 10:15:00
3:35 AM,53.6,53.6,100,29.79,5.0,Calm,Calm,-,0.05,Rain,Light Rain,0,2013-09-28 10:35:00
3:55 AM,53.6,53.6,100,29.77,5.0,Calm,Calm,-,0.07,Rain,Light Rain,0,2013-09-28 10:55:00
4:15 AM,53.6,53.6,100,29.75,10.0,Calm,Calm,-,N/A,Rain,Light Rain,0,2013-09-28 11:15:00
4:35 AM,53.6,53.6,100,29.73,9.0,Calm,Calm,-,N/A,Rain,Light Rain,0,2013-09-28 11:35:00
4:55 AM,53.6,53.6,100,29.71,7.0,Calm,Calm,-,0.01,Rain,Light Rain,0,2013-09-28 11:55:00
5:15 AM,53.6,53.6,100,29.71,7.0,Calm,Calm,-,0.01,Rain,Light Rain,0,2013-09-28 12:15:00
5:35 AM,53.6,53.6,100,29.69,6.0,Calm,Calm,-,0.04,Rain,Light Rain,0,2013-09-28 12:35:00
5:55 AM,53.6,53.6,100,29.68,5.0,Calm,Calm,-,0.07,Rain,Light Rain,0,2013-09-28 12:55:00
6:15 AM,53.6,53.6,100,29.66,9.0,Calm,Calm,-,0.02,Rain,Light Rain,0,2013-09-28 13:15:00
6:35 AM,53.6,53.6,100,29.65,5.0,Calm,Calm,-,0.05,Rain,Rain,0,2013-09-28 13:35:00
6:55 AM,55.4,55.4,100,29.64,5.0,Calm,Calm,-,0.10,Rain,Light Rain,0,2013-09-28 13:55:00
7:15 AM,55.4,55.4,100,29.63,5.0,South,5.8,-,0.03,Rain,Light Rain,180,2013-09-28 14:15:00
7:35 AM,55.4,55.4,100,29.62,3.0,Calm,Calm,-,0.05,Rain,Light Rain,0,2013-09-28 14:35:00
7:55 AM,55.4,55.4,100,29.60,5.0,Calm,Calm,-,0.06,Rain,Light Rain,0,2013-09-28 14:55:00
8:15 AM,57.2,57.2,100,29.60,3.0,Calm,Calm,-,0.03,Rain,Light Rain,0,2013-09-28 15:15:00
8:35 AM,57.2,57.2,100,29.59,4.0,Calm,Calm,-,0.09,Rain,Light Rain,0,2013-09-28 15:35:00
8:55 AM,57.2,57.2,100,29.58,7.0,Calm,Calm,-,0.10,Rain,Light Rain,0,2013-09-28 15:55:00
9:15 AM,57.2,57.2,100,29.58,5.0,South,3.5,-,0.03,Rain,Light Rain,190,2013-09-28 16:15:00
9:35 AM,57.2,57.2,100,29.57,5.0,South,4.6,-,0.10,Rain,Light Rain,170,2013-09-28 16:35:00
9:55 AM,57.2,57.2,100,29.57,2.0,Calm,Calm,-,0.19,Rain,Rain,0,2013-09-28 16:55:00
10:15 AM,57.2,57.2,100,29.57,4.0,Calm,Calm,-,0.04,Rain,Light Rain,0,2013-09-28 17:15:00
10:35 AM,59.0,59.0,100,29.56,7.0,Calm,Calm,-,0.05,Rain,Light Rain,0,2013-09-28 17:35:00
10:55 AM,59.0,59.0,100,29.55,9.0,Calm,Calm,-,0.08,Rain,Light Rain,0,2013-09-28 17:55:00
11:15 AM,59.0,59.0,100,29.54,4.0,Calm,Calm,-,0.02,Rain,Light Rain,0,2013-09-28 18:15:00
11:35 AM,59.0,59.0,100,29.54,3.0,Calm,Calm,-,0.06,Rain,Rain,0,2013-09-28 18:35:00
11:55 AM,59.0,59.0,100,29.53,9.0,South,3.5,-,0.06,Rain,Light Rain,180,2013-09-28 18:55:00
12:15 PM,59.0,59.0,100,29.53,10.0,SSW,9.2,18.4,0.01,Rain,Light Rain,200,2013-09-28 19:15:00
12:35 PM,59.0,57.2,94,29.54,9.0,SSW,9.2,21.9,0.02,Rain,Light Rain,210,2013-09-28 19:35:00
12:55 PM,59.0,57.2,94,29.53,10.0,South,6.9,17.3,0.03,Rain,Light Rain,190,2013-09-28 19:55:00
1:15 PM,59.0,55.4,88,29.50,10.0,South,5.8,-,N/A,,Unknown,170,2013-09-28 20:15:00
1:35 PM,60.8,55.4,82,29.49,10.0,South,4.6,-,N/A,,Unknown,180,2013-09-28 20:35:00
1:55 PM,62.6,55.4,77,29.47,10.0,South,3.5,-,N/A,,Unknown,180,2013-09-28 20:55:00
2:15 PM,62.6,55.4,77,29.46,8.0,South,6.9,17.3,N/A,,Unknown,180,2013-09-28 21:15:00
2:35 PM,60.8,57.2,88,29.44,10.0,South,8.1,18.4,N/A,,Unknown,190,2013-09-28 21:35:00
2:55 PM,62.6,57.2,82,29.44,9.0,South,10.4,21.9,0.01,Rain,Light Rain,190,2013-09-28 21:55:00
3:15 PM,59.0,57.2,94,29.44,5.0,South,5.8,19.6,0.03,Rain,Light Rain,180,2013-09-28 22:15:00
3:35 PM,59.0,59.0,100,29.41,10.0,South,6.9,19.6,0.04,Rain,Light Rain,180,2013-09-28 22:35:00
3:55 PM,60.8,57.2,88,29.41,9.0,South,11.5,23.0,0.04,Rain,Light Rain,190,2013-09-28 22:55:00
4:15 PM,60.8,57.2,88,29.40,10.0,South,6.9,18.4,0.01,Rain,Light Rain,180,2013-09-28 23:15:00
4:35 PM,60.8,57.2,88,29.39,6.0,South,9.2,20.7,0.01,Rain,Light Rain,190,2013-09-28 23:35:00
4:55 PM,59.0,57.2,94,29.41,3.0,SSW,4.6,-,0.06,Rain,Rain,210,2013-09-28 23:55:00
5:15 PM,57.2,57.2,100,29.45,1.0,West,9.2,23.0,0.27,Rain,Heavy Rain,260,2013-09-29 00:15:00
5:35 PM,55.4,55.4,100,29.47,5.0,WSW,10.4,23.0,0.32,Rain,Light Rain,250,2013-09-29 00:35:00
5:55 PM,53.6,53.6,100,29.49,10.0,WSW,6.9,-,0.33,,Unknown,250,2013-09-29 00:55:00
6:15 PM,53.6,53.6,100,29.50,5.0,Calm,Calm,-,0.02,Rain,Light Rain,0,2013-09-29 01:15:00
6:35 PM,51.8,51.8,100,29.50,5.0,Calm,Calm,-,0.05,Rain,Light Rain,0,2013-09-29 01:35:00
6:55 PM,51.8,51.8,100,29.50,7.0,Calm,Calm,-,0.07,Rain,Light Rain,0,2013-09-29 01:55:00
7:15 PM,51.8,51.8,100,29.51,5.0,Calm,Calm,-,0.03,Rain,Light Rain,0,2013-09-29 02:15:00
7:35 PM,50.0,50.0,100,29.50,6.0,South,4.6,-,0.07,Rain,Light Rain,170,2013-09-29 02:35:00
7:55 PM,50.0,50.0,100,29.49,6.0,South,5.8,-,0.10,Rain,Light Rain,170,2013-09-29 02:55:00
8:15 PM,51.8,50.0,94,29.50,9.0,South,3.5,16.1,0.01,Rain,Light Rain,170,2013-09-29 03:15:00
8:35 PM,51.8,50.0,94,29.50,10.0,Calm,Calm,-,0.01,,Unknown,0,2013-09-29 03:35:00
8:55 PM,51.8,50.0,94,29.52,10.0,South,4.6,-,0.01,,Unknown,190,2013-09-29 03:55:00
9:15 PM,51.8,50.0,94,29.53,10.0,Calm,Calm,-,N/A,,Unknown,0,2013-09-29 04:15:00
9:35 PM,51.8,50.0,94,29.53,10.0,Calm,Calm,-,N/A,,Unknown,0,2013-09-29 04:35:00
9:55 PM,51.8,50.0,94,29.52,10.0,Calm,Calm,-,0.01,,Unknown,0,2013-09-29 04:55:00
10:15 PM,51.8,48.2,88,29.52,10.0,Calm,Calm,-,N/A,,Unknown,0,2013-09-29 05:15:00
10:35 PM,51.8,48.2,88,29.53,10.0,Calm,Calm,-,N/A,,Unknown,0,2013-09-29 05:35:00
10:55 PM,51.8,48.2,88,29.53,10.0,Calm,Calm,-,N/A,,Unknown,0,2013-09-29 05:55:00
11:15 PM,51.8,48.2,88,29.53,10.0,Calm,Calm,-,N/A,,Unknown,0,2013-09-29 06:15:00
11:35 PM,51.8,48.2,88,29.54,10.0,Calm,Calm,-,N/A,,Unknown,0,2013-09-29 06:35:00
11:55 PM,51.8,48.2,88,29.54,10.0,Calm,Calm,-,N/A,,Unknown,0,2013-09-29 06:55:00